User: anonymous   Login
Location: Namasale
(1.5000°N, 32.6167°E)
Time: 00:55:14
(UTC+00:00)
Language:

ISS - Orbit

View from above orbital plane
View from above orbital plane
View from above satellite
View from above satellite

Ground track
Ground track

The orbit data is extracted from the following two-line orbital elements,

1 25544U 98067A   22023.88784795  .00005671  00000-0  10872-3 0  9995
2 25544  51.6443 331.1875 0006753  55.2214  46.3522 15.49604727322805
Epoch (UTC): 23 January 2022 21:18:30
Eccentricity: 0.0006753
inclination: 51.6443°
perigee height: 413 km
apogee height: 422 km
right ascension of ascending node: 331.1875°
argument of perigee: 55.2214°
revolutions per day: 15.49604727
mean anomaly at epoch: 46.3522°
orbit number at epoch: 32280

The dashed part of the orbit path shows where the satellite is in the earth's shadow,  

DLR